Regional Weather Roundup
Issued by NWS Green Bay, WI

Home | Current Version | Previous Version | Graphics & Text | Print | Product List | Glossary Off
Versions: 1 2 3 4 5 6 7 8 9 10 11 12 13 14 15 16 17 18 19 20 21 22 23 24 25 26 27 28 29 30 31 32 33 34 35 36 37 38 39 40 41 42 43 44 45 46 47 48 49 50

000
ASUS43 KGRB 210411
RWRGRB

NORTH-CENTRAL AND NORTHEAST WISCONSIN REGIONAL WEATHER ROUNDUP
NATIONAL WEATHER SERVICE GREEN BAY WI
1000 PM CST SAT JAN 20 2018

WIZ005-009-010>012-018-019-210500-
NORTH CENTRAL WISCONSIN

CITY           SKY/WX    TMP DP  RH WIND       PRES   REMARKS
IRONWOOD       FAIR      33  29  85 SW5       29.89R
MANITOWISH WTR   N/A     20  20 100 CALM      29.89S FOG
ARBOR VITAE    FOG       27  26  96 CALM      29.89S VSB 1/2
EAGLE RIVER    FOG       24  24 100 CALM      29.89S VSB 1/2
LAND O LAKES   FOG       23  22  96 CALM      29.91S VSB<1/4
RHINELANDER    FAIR      31  29  92 CALM      29.90S
PHILLIPS       FAIR      29  29  99 CALM      29.89S
ANTIGO         FAIR      27  26  96 CALM      29.91F
TOMAHAWK       FAIR      29  28  95 CALM      29.91S
MERRILL        FAIR      29  29 100 CALM      29.92F
$$

WIZ013-073-210500-
NORTHEAST WISCONSIN

CITY           SKY/WX    TMP DP  RH WIND       PRES   REMARKS
IRON MOUNTAIN  FAIR      26  23  88 CALM      29.91R
MARINETTE      FAIR      35  30  82 CALM      29.96R
OCONTO         FAIR      28  27  95 CALM      29.94S
$$

WIZ017-030-035>037-045-210500-
CENTRAL WISCONSIN

CITY           SKY/WX    TMP DP  RH WIND       PRES   REMARKS
MEDFORD        FAIR      29  28  94 S3        29.91R
WAUSAU         FAIR      30  28  92 CALM      29.91S
MOSINEE        CLEAR     34  30  86 CALM      29.93S
MARSHFIELD     FAIR      32  29  88 CALM      29.91S
WISC RAPIDS    FAIR      28  25  88 CALM      29.94S FOG
STEVENS POINT  FAIR      27  27 100 CALM      29.94S
WAUPACA        FAIR      31  28  91 CALM      29.95R
SHAWANO        FAIR      32  29  90 CALM      29.95R
CLINTONVILLE   FAIR      30  28  93 CALM      29.94S
WAUTOMA        FAIR      26  24  92 CALM      29.95S
$$

WIZ038-039-048-051-210500-
FOX VALLEY

CITY           SKY/WX    TMP DP  RH WIND       PRES   REMARKS
NWS GREEN BAY  FAIR      31  29  92 CALM      29.95R FOG
APPLETON       MOCLDY    32  27  80 CALM      29.93R
OSHKOSH        FAIR      32  29  88 S5        29.94R
FOND DU LAC    FAIR      32  28  85 S7        29.95R
$$

WIZ022-050-052-210500-
EAST CENTRAL WISCONSIN

CITY           SKY/WX    TMP DP  RH WIND       PRES   REMARKS
EPHRAIM        FAIR      36  30  79 W3        29.94R
WASHINGTON ISL FAIR      27  26  99 CALM      29.95R FOG
STURGEON BAY   FAIR      33  29  85 CALM      29.96R
MANITOWOC      FAIR      29  28  96 CALM      29.96R
SHEBOYGAN      FAIR      29  28  96 W3        29.95R
$$

LMZ563-521-522-541>543-210500-
LAKESHORE

STATION/POSITION TIME  TEMP    WIND        PRES    VSBY  WAVE
                       AIR SEA DIR/SP/G                  HT/PER
                 (UTC) (F)     (DEG/KT/KT) (MB)    (MI)  (FT/S)
SHEBOYGAN LKSHOR 0400   35     230/  3/  3 1014.8R
KEWAUNEE LKSHORE 0348   31      CALM  /  2 1013.6R
NORTHPORT PIER   0400   31      CALM  /  4 1014.2
SISTER BAY LKSHO 0320   36        CALM       N/A
MENOMINEE LKSHOR 0348   33     200/  5/  6 1013.8R
$$




USA.gov is the U.S. government's official web portal to all federal, state and local government web resources and services.